This is the latest recevied weather packets stored in our database for station/object LU4EGV-13. If no packets are shown the sender has not sent any weather packets the latest 10 day(s).
| Time | Temp. | Humidity | Pressure | Rain* | Wind** | Luminosity | Snow |
|---|---|---|---|---|---|---|---|
| 1777701843 | 13.33° C | 74% | 1016.7 hPa | 0 mm | - | - | - |
| 1777701516 | 13.33° C | 74% | 1016.6 hPa | 0 mm | - | - | - |
| 1777700910 | 12.78° C | 74% | 1016.5 hPa | 0 mm | - | - | - |
| 1777700303 | 12.78° C | 73% | 1016.7 hPa | 0 mm | - | - | - |
| 1777699699 | 13.33° C | 73% | 1016.2 hPa | 0 mm | - | - | - |
| 1777699091 | 13.33° C | 72% | 1016.3 hPa | 0 mm | - | - | - |
| 1777698486 | 13.33° C | 72% | 1016.2 hPa | 0 mm | - | - | - |
| 1777697879 | 13.33° C | 72% | 1016.2 hPa | 0 mm | - | - | - |
| 1777697273 | 13.33° C | 70% | 1015.9 hPa | 0 mm | - | - | - |
| 1777696667 | 13.33° C | 69% | 1015.5 hPa | 0 mm | - | - | - |
| 1777696061 | 13.33° C | 68% | 1015.8 hPa | 0 mm | - | - | - |
| 1777695465 | 13.33° C | 67% | 1015.4 hPa | 0 mm | - | - | - |
| 1777694848 | 13.89° C | 67% | 1015.7 hPa | 0 mm | - | - | - |
| 1777694242 | 13.89° C | 66% | 1015.2 hPa | 0 mm | - | - | - |
| 1777693637 | 13.89° C | 63% | 1014.4 hPa | 0 mm | - | - | - |
| 1777693033 | 14.44° C | 63% | 1015.4 hPa | 0 mm | - | - | - |
| 1777692429 | 14.44° C | 62% | 1014.3 hPa | 0 mm | - | - | - |
| 1777691818 | 15° C | 62% | 1014.6 hPa | 0 mm | - | - | - |
| 1777691211 | 15° C | 60% | 1014.8 hPa | 0 mm | - | - | - |
| 1777690614 | 15° C | 60% | 1014.5 hPa | 0 mm | - | - | - |
| 1777689999 | 15.56° C | 60% | 1014.6 hPa | 0 mm | - | - | - |
| 1777689392 | 15.56° C | 61% | 1014.1 hPa | 0 mm | - | - | - |
| 1777688786 | 16.11° C | 60% | 1014.3 hPa | 0 mm | - | - | - |
| 1777688183 | 16.67° C | 60% | 1013.8 hPa | 0 mm | - | - | - |
| 1777687574 | 16.67° C | 61% | 1013.6 hPa | 0 mm | - | - | - |
* Rain since midnight (hover to see other rain measurements)
** Current wind speed in m/s (hover to see current wind gust speed)